IRIDIUM 11 [P]

Last updated on Oct. 10, 2018, 12:08 a.m. UTC

1 25578U 98074B   18282.79073044  .02647832 -89289-6  77243-3 0  9991
2 25578  86.4240  54.8352 0383018 339.1532  19.4452 15.50933344 46269

Satellite is not in orbit.